Flag for Dominican Republic Weather for the Past 2 Weeks in Santiago de los Caballeros, Dominican Republic

Now
77 °F

Passing clouds.


Feels Like: 79 °F
Forecast: 65 / 88 °F
Wind: 7 mph from East

Location: Santiago

Current Time: Feb 6, 2016 at 10:28:04 PM

Latest Report: Feb 6, 2016 at 9:00 PM


Visibility: N/A

Pressure: 30.01 "Hg

Humidity: 79%

Dew point: 70 °F

Location of Santiago de los CaballerosLocation

Historic Weather in Santiago de los Caballeros — Graph

°F

Santiago de los Caballeros Temperature Yesterday

Maximum temperature yesterday: 86 °F (at 3:00 PM)
Minimum temperature yesterday: 59 °F (at 6:00 AM)
Average temperature yesterday: 72 °F

High & Low Weather Summary for the Past Weeks

 TemperatureHumidityPressure
High88 °F (Jan 31, 4:00 PM)100% (Jan 23, 2:00 AM)30.21 "Hg (Jan 23, 2:00 AM)
Low59 °F (Feb 5, 6:00 AM)33% (Feb 4, 3:00 PM)29.83 "Hg (Jan 23, 4:00 PM)
Average74 °F82%30.02 "Hg
* Reported Jan 22 8:00 PM — Feb 6 8:00 PM, Santiago de los Caballeros, Weather by CustomWeather, © 2016

Note: Actual official high and low records may vary slightly from our data, if they occured in-between our weather recording intervals... More about our weather records

Advertising

Santiago de los Caballeros Weather History for the Previous 24 Hours

 ConditionsComfort  
Time TempWeatherWind HumidityBarometerVisibility
8:00 PM
Sat, Feb 6
77 °FPassing clouds.7 mph79%30.01 "HgN/A
7:00 PM81 °FPassing clouds.7 mph66%29.95 "HgN/A
6:00 PM84 °FScattered clouds.8 mph55%29.95 "HgN/A
5:00 PM84 °FScattered clouds.9 mph55%29.92 "HgN/A
4:00 PM86 °FPassing clouds.8 mph49%29.92 "HgN/A
3:00 PM86 °FPassing clouds.9 mph49%29.95 "HgN/A
2:00 PM84 °FPassing clouds.10 mph51%29.98 "HgN/A
1:00 PM84 °FScattered clouds.8 mph55%30.01 "HgN/A
12:00 PM82 °FPassing clouds.8 mph55%30.04 "HgN/A
11:00 AM79 °FPassing clouds.No wind70%30.07 "HgN/A
10:00 AM77 °FPassing clouds.No wind69%30.07 "HgN/A
9:00 AM70 °FPassing clouds.No wind88%30.04 "HgN/A
8:00 AM61 °FPassing clouds.No wind100%30.01 "HgN/A
7:00 AM61 °FPassing clouds.No wind100%30.01 "HgN/A
6:00 AM64 °FPassing clouds.No wind100%29.98 "HgN/A
5:00 AM64 °FPassing clouds.No wind100%29.95 "HgN/A
4:00 AM64 °FPassing clouds.No wind100%29.98 "HgN/A
3:00 AM64 °FPassing clouds.No wind100%29.98 "HgN/A
2:00 AM66 °FPassing clouds.No wind100%30.01 "HgN/A
1:00 AM68 °FPassing clouds.No wind100%30.01 "HgN/A
12:00 AM70 °FPassing clouds.No wind94%30.04 "HgN/A
11:00 PM
Fri, Feb 5
72 °FPassing clouds.5 mph88%30.04 "HgN/A
10:00 PM73 °FPassing clouds.No wind83%30.01 "HgN/A
Weather by CustomWeather, © 2016

See weather overviewHow to use our weather pages